Location: *
(49.0044°N, 9.5056°E)
Time: 04:31:53
(UTC+00:00)

Cosmos 1805 - Pass Details

Date: 22 September 2019
Orbit: 525 x 532 km, 82.5° (Epoch: 23 October)

Event Time Altitude Azimuth Distance (km) Brightness Sun altitude
Exits shadow 19:07:14 29° 162° (SSE) 988 4.2 -17.9°
Maximum altitude 19:08:59 57° 96° (E) 631 3.2 -18.1°
Drops below altitude 10° 19:12:49 10° 17° (NNE) 1,783 6.0 -18.7°
Sets 19:15:00 0° 14° (NNE) 2,677 7.0 -19.0°
